GW0655 Weather Reports


Display with metric or nautical units.
time (UTC)temp
F
wind
direction
speed
MPH
gust
MPH
rain 1hr
in
rain 24hr
in
rain mn
in
humidity
%
barometer
mb
20260505001401 80 224 4.0 6.0 0.00 0.00 0.00 63 1010.0
20260505000859 80 202 5.0 7.0 0.00 0.00 0.00 62 1010.3
20260505000358 80 190 5.0 7.0 0.00 0.00 0.00 62 1010.3
20260504235853 80 234 6.0 8.0 0.00 0.00 0.00 61 1010.3
20260504235350 80 169 5.0 6.0 0.00 0.00 0.00 61 1010.3
20260504234846 81 209 5.0 7.0 0.00 0.00 0.00 61 1010.3
20260504234344 81 220 7.0 8.0 0.00 0.00 0.00 60 1010.3
20260504233840 80 170 3.0 5.0 0.00 0.00 0.00 61 1010.7
20260504233336 80 182 7.0 8.0 0.00 0.00 0.00 61 1010.7
20260504232833 81 253 3.0 5.0 0.00 0.00 0.00 60 1010.3
20260504232330 81 216 7.0 8.0 0.00 0.00 0.00 60 1010.7
20260504231827 81 172 5.0 7.0 0.00 0.00 0.00 59 1010.7
20260504231323 81 100 2.0 3.0 0.00 0.00 0.00 60 1010.7
20260504230819 81 213 3.0 5.0 0.00 0.00 0.00 59 1011.0
20260504230318 81 179 4.0 6.0 0.00 0.00 0.00 59 1010.7
20260504225816 81 207 5.0 6.0 0.00 0.00 0.00 59 1011.0
20260504225312 81 203 4.0 5.0 0.00 0.00 0.00 59 1011.0
20260504224809 81 104 7.0 9.0 0.00 0.00 0.00 59 1010.7
20260504224306 81 249 7.0 10.0 0.00 0.00 0.00 58 1011.0
20260504223803 81 180 7.0 8.0 0.00 0.00 0.00 59 1011.0
20260504223258 82 226 7.0 9.0 0.00 0.00 0.00 59 1011.0
20260504222755 82 236 6.0 8.0 0.00 0.00 0.00 58 1011.0
20260504222252 82 150 4.0 6.0 0.00 0.00 0.00 58 1011.0
20260504221750 82 217 4.0 5.0 0.00 0.00 0.00 59 1011.3
20260504221247 82 202 3.0 3.0 0.00 0.00 0.00 58 1011.3
20260504220743 83 264 4.0 5.0 0.00 0.00 0.00 57 1011.3
20260504220241 82 195 5.0 7.0 0.00 0.00 0.00 58 1011.3
20260504215738 82 228 7.0 9.0 0.00 0.00 0.00 58 1011.3
20260504215234 82 187 4.0 5.0 0.00 0.00 0.00 58 1011.3
20260504214730 82 176 3.0 5.0 0.00 0.00 0.00 59 1011.3
20260504214227 82 227 5.0 6.0 0.00 0.00 0.00 58 1011.7
20260504213724 82 174 4.0 7.0 0.00 0.00 0.00 58 1011.7
20260504213220 82 293 5.0 7.0 0.00 0.00 0.00 59 1011.7
20260504212717 82 205 3.0 3.0 0.00 0.00 0.00 58 1011.7
20260504212214 82 215 7.0 9.0 0.00 0.00 0.00 57 1011.7
20260504211711 82 188 7.0 10.0 0.00 0.00 0.00 58 1011.7
20260504211207 82 196 3.0 5.0 0.00 0.00 0.00 58 1012.0
20260504210705 82 216 3.0 5.0 0.00 0.00 0.00 58 1012.4
20260504210201 82 226 3.0 5.0 0.00 0.00 0.00 58 1012.0
20260504205659 83 165 6.0 9.0 0.00 0.00 0.00 57 1012.0
20260504205156 82 215 4.0 6.0 0.00 0.00 0.00 57 1012.0
20260504204654 82 156 3.0 6.0 0.00 0.00 0.00 58 1012.0
20260504204153 82 151 9.0 13.0 0.00 0.00 0.00 57 1012.4
20260504203651 82 161 6.0 8.0 0.00 0.00 0.00 57 1012.4
20260504203148 82 176 5.0 7.0 0.00 0.00 0.00 57 1012.7
20260504202643 83 137 9.0 16.0 0.00 0.00 0.00 57 1012.7
20260504202140 82 205 5.0 7.0 0.00 0.00 0.00 58 1012.7
20260504201637 82 219 6.0 10.0 0.00 0.00 0.00 58 1012.7
20260504201135 82 193 6.0 8.0 0.00 0.00 0.00 58 1013.1
20260504200632 82 285 7.0 10.0 0.00 0.00 0.00 57 1013.1
20260504200128 82 181 7.0 10.0 0.00 0.00 0.00 57 1013.5
20260504195624 82 271 2.0 3.0 0.00 0.00 0.00 58 1013.5
20260504195121 83 229 4.0 5.0 0.00 0.00 0.00 56 1013.5
20260504194618 82 198 4.0 6.0 0.00 0.00 0.00 58 1013.5
20260504194113 82 192 5.0 8.0 0.00 0.00 0.00 56 1013.8
20260504193610 82 162 3.0 6.0 0.00 0.00 0.00 58 1013.5
20260504193109 82 206 7.0 9.0 0.00 0.00 0.00 57 1013.8
20260504192606 81 215 7.0 9.0 0.00 0.00 0.00 58 1013.5
20260504192104 81 205 6.0 7.0 0.00 0.00 0.00 59 1013.8
20260504191602 81 226 8.0 9.0 0.00 0.00 0.00 56 1014.1
20260504191058 82 142 5.0 6.0 0.00 0.00 0.00 56 1013.8
20260504190554 81 275 6.0 9.0 0.00 0.00 0.00 58 1014.1
20260504190050 81 220 3.0 3.0 0.00 0.00 0.00 58 1014.1
20260504185547 81 231 2.0 5.0 0.00 0.00 0.00 58 1014.1
20260504185044 81 173 5.0 7.0 0.00 0.00 0.00 58 1013.8
20260504184539 80 221 2.0 2.0 0.00 0.00 0.00 59 1014.1
20260504184035 81 85 5.0 7.0 0.00 0.00 0.00 58 1014.1
20260504183532 82 217 5.0 7.0 0.00 0.00 0.00 57 1014.5
20260504183030 80 201 4.0 6.0 0.00 0.00 0.00 59 1014.5
20260504182527 79 166 4.0 5.0 0.00 0.00 0.00 59 1014.5
20260504182024 80 224 5.0 7.0 0.00 0.00 0.00 58 1014.8
20260504181521 79 138 9.0 11.0 0.00 0.00 0.00 61 1014.8
20260504181020 79 215 9.0 13.0 0.00 0.00 0.00 60 1014.8
20260504180518 80 197 3.0 5.0 0.00 0.00 0.00 60 1014.5
20260504180017 80 192 3.0 5.0 0.00 0.00 0.00 61 1014.8
20260504175513 79 246 10.0 11.0 0.00 0.00 0.00 61 1014.8
20260504175011 79 183 3.0 5.0 0.00 0.00 0.00 62 1014.8
20260504174508 78 191 7.0 10.0 0.00 0.00 0.00 62 1015.2
20260504174005 78 226 9.0 10.0 0.00 0.00 0.00 61 1015.5
20260504173502 77 221 4.0 10.0 0.00 0.00 0.00 64 1015.5
20260504172959 78 194 8.0 9.0 0.00 0.00 0.00 63 1015.5
20260504172455 77 157 3.0 6.0 0.00 0.00 0.00 65 1015.8
20260504171951 77 208 4.0 5.0 0.00 0.00 0.00 65 1015.5
20260504171449 76 208 5.0 6.0 0.00 0.00 0.00 66 1015.8
20260504170945 75 259 4.0 6.0 0.00 0.00 0.00 67 1015.8
20260504170442 76 208 6.0 8.0 0.00 0.00 0.00 67 1015.8
20260504160402 75 234 5.0 7.0 0.00 0.00 0.00 67 1016.5
20260504150826 73 192 5.0 6.0 0.00 0.00 0.00 68 1016.5
20260504150322 72 183 5.0 6.0 0.00 0.00 0.00 69 1016.9
20260504141252 68 116 3.0 5.0 0.00 0.00 0.00 72 1016.9
20260504140749 68 204 4.0 5.0 0.00 0.00 0.00 73 1016.9
20260504140244 68 191 5.0 5.0 0.00 0.00 0.00 73 1017.2
20260504130713 63 217 2.0 2.0 0.00 0.00 0.00 81 1016.9
20260504130209 62 232 0.0 1.0 0.00 0.00 0.00 82 1016.9
20260504120133 59 234 1.0 2.0 0.00 0.00 0.00 86 1016.2
20260504110600 59 174 1.0 2.0 0.00 0.00 0.00 87 1016.9
20260504100522 60 229 1.0 1.0 0.00 0.00 0.00 83 1016.5
20260504081916 61 229 0.0 1.0 0.00 0.00 0.00 80 1017.2
20260504081413 62 248 1.0 1.0 0.00 0.00 0.00 79 1017.5
20260504080908 62 246 0.0 0.0 0.00 0.00 0.00 79 1017.2
20260504080405 62 233 0.0 0.0 0.00 0.00 0.00 79 1017.2
20260504070333 64 210 1.0 1.0 0.00 0.00 0.00 73 1018.2
20260504050721 66 236 2.0 3.0 0.00 0.00 0.00 67 1018.9
20260504050218 66 121 3.0 3.0 0.00 0.00 0.00 66 1019.3
20260504045715 66 146 4.0 6.0 0.00 0.00 0.00 65 1019.3
20260504045215 66 242 3.0 5.0 0.00 0.00 0.00 66 1019.3
20260504044714 66 160 3.0 3.0 0.00 0.00 0.00 66 1019.3
20260504044210 66 197 3.0 6.0 0.00 0.00 0.00 66 1019.3
20260504043708 66 195 2.0 2.0 0.00 0.00 0.00 65 1019.3
20260504043204 66 127 3.0 3.0 0.00 0.00 0.00 65 1019.3
20260504042702 66 254 1.0 2.0 0.00 0.00 0.00 65 1019.3
20260504042158 67 216 1.0 2.0 0.00 0.00 0.00 64 1019.7
20260504041654 67 193 0.0 1.0 0.00 0.00 0.00 64 1019.7
20260504041150 67 135 2.0 3.0 0.00 0.00 0.00 63 1019.3
20260504040647 67 185 1.0 1.0 0.00 0.00 0.00 63 1019.7
20260504040144 67 203 2.0 2.0 0.00 0.00 0.00 62 1019.3
20260504035641 67 182 3.0 3.0 0.00 0.00 0.00 62 1019.3
20260504035138 68 148 3.0 3.0 0.00 0.00 0.00 61 1019.3
20260504034635 68 97 2.0 3.0 0.00 0.00 0.00 61 1019.3
20260504034132 68 170 1.0 2.0 0.00 0.00 0.00 60 1019.3
20260504033630 67 182 1.0 3.0 0.00 0.00 0.00 60 1018.9
20260504033127 66 177 1.0 2.0 0.00 0.00 0.00 61 1019.3
20260504032624 66 137 1.0 1.0 0.00 0.00 0.00 61 1019.3
20260504032120 66 215 0.0 0.0 0.00 0.00 0.00 61 1019.3
20260504031618 66 238 0.0 1.0 0.00 0.00 0.00 62 1019.3
20260504031114 66 249 0.0 0.0 0.00 0.00 0.00 61 1019.3
20260504030611 66 211 0.0 0.0 0.00 0.00 0.00 61 1019.3
20260504030108 66 229 0.0 0.0 0.00 0.00 0.00 61 1018.9
20260504025604 67 239 0.0 0.0 0.00 0.00 0.00 61 1018.9
20260504025101 67 243 0.0 0.0 0.00 0.00 0.00 60 1018.9
20260504024559 67 243 0.0 0.0 0.00 0.00 0.00 60 1018.9
20260504024055 67 222 0.0 1.0 0.00 0.00 0.00 60 1018.9
20260504023552 67 233 0.0 1.0 0.00 0.00 0.00 59 1018.9
20260504023048 68 247 0.0 1.0 0.00 0.00 0.00 60 1018.9
20260504022544 67 244 0.0 1.0 0.00 0.00 0.00 59 1018.9
20260504022040 68 246 0.0 0.0 0.00 0.00 0.00 59 1019.3
20260504021538 68 237 0.0 0.0 0.00 0.00 0.00 58 1018.9
20260504021034 69 237 0.0 0.0 0.00 0.00 0.00 56 1018.9
20260504020531 69 236 0.0 0.0 0.00 0.00 0.00 56 1018.9
20260504020028 69 241 0.0 0.0 0.00 0.00 0.00 55 1018.9
20260504015524 69 256 0.0 0.0 0.00 0.00 0.00 55 1018.5
20260504015020 70 248 0.0 0.0 0.00 0.00 0.00 54 1018.5
20260504014517 70 235 0.0 0.0 0.00 0.00 0.00 54 1018.2
20260504014014 71 234 0.0 0.0 0.00 0.00 0.00 53 1018.5
20260504013512 71 228 0.0 0.0 0.00 0.00 0.00 52 1018.2
20260504013009 71 215 1.0 1.0 0.00 0.00 0.00 51 1018.2
20260504012506 71 239 0.0 0.0 0.00 0.00 0.00 51 1018.2
20260504012004 72 236 0.0 0.0 0.00 0.00 0.00 50 1018.2
20260504011500 72 224 0.0 0.0 0.00 0.00 0.00 50 1018.5
20260504010955 73 227 0.0 0.0 0.00 0.00 0.00 50 1018.2
20260504010452 74 210 0.0 1.0 0.00 0.00 0.00 47 1018.2
20260504005948 74 185 1.0 2.0 0.00 0.00 0.00 46 1018.2
20260504005445 74 209 2.0 2.0 0.00 0.00 0.00 45 1018.2
20260504004943 75 203 1.0 2.0 0.00 0.00 0.00 45 1018.2
20260504004440 75 197 1.0 2.0 0.00 0.00 0.00 45 1017.9
20260504003937 75 249 1.0 1.0 0.00 0.00 0.00 44 1018.2
20260504003433 75 248 1.0 2.0 0.00 0.00 0.00 43 1018.2
20260504002930 76 170 3.0 3.0 0.00 0.00 0.00 42 1018.5
20260504002427 76 205 3.0 3.0 0.00 0.00 0.00 43 1018.5
20260504001924 76 191 3.0 3.0 0.00 0.00 0.00 42 1018.5